FW2726 Weather Reports


Display with metric or nautical units.
time (UTC)temp
F
wind
direction
speed
MPH
gust
MPH
rain 1hr
in
rain 24hr
in
rain mn
in
humidity
%
barometer
mb
20260510111602 36 177 12.0 17.0 0.00 0.00 0.00 63 1016.4
20260510110101 36 162 12.0 16.0 0.00 0.00 0.00 63 1016.5
20260510104605 37 175 11.0 16.0 0.00 0.00 0.00 61 1016.6
20260510103102 37 174 13.0 20.0 0.00 0.00 0.00 60 1016.6
20260510101601 37 174 14.0 18.0 0.00 0.00 0.00 60 1016.7
20260510100100 38 182 13.0 18.0 0.00 0.00 0.00 59 1016.8
20260510094614 38 184 12.0 18.0 0.00 0.00 0.00 59 1016.8
20260510093120 38 183 12.0 18.0 0.00 0.00 0.00 58 1016.5
20260510091603 39 192 14.0 19.0 0.00 0.00 0.00 56 1016.5
20260510090114 40 191 14.0 19.0 0.00 0.00 0.00 55 1016.4
20260510084602 39 182 13.0 20.0 0.00 0.00 0.00 57 1016.6
20260510083100 39 176 13.0 21.0 0.00 0.00 0.00 57 1016.7
20260510081600 39 171 13.0 18.0 0.00 0.00 0.00 58 1016.8
20260510080100 39 172 14.0 19.0 0.00 0.00 0.00 59 1016.8
20260510074605 39 173 13.0 22.0 0.00 0.00 0.00 59 1016.9
20260510073058 39 168 12.0 18.0 0.00 0.00 0.00 59 1017.1
20260510071607 39 170 13.0 19.0 0.00 0.00 0.00 58 1017.0
20260510070058 40 174 12.0 18.0 0.00 0.00 0.00 57 1017.1
20260510064602 41 181 12.0 18.0 0.00 0.00 0.00 57 1017.0
20260510063104 40 153 12.0 16.0 0.00 0.00 0.00 59 1016.9
20260510061601 39 162 11.0 15.0 0.00 0.00 0.00 61 1017.1
20260510060104 37 151 8.0 11.0 0.00 0.00 0.00 64 1017.2
20260510054600 36 162 7.0 10.0 0.00 0.00 0.00 65 1017.0
20260510053105 36 148 6.0 8.0 0.00 0.00 0.00 64 1017.0
20260510051559 36 148 6.0 8.0 0.00 0.00 0.00 64 1017.0
20260510050100 37 150 6.0 9.0 0.00 0.00 0.00 62 1017.1
20260510044600 36 136 7.0 9.0 0.00 0.00 0.00 62 1017.1
20260510043105 36 143 6.0 8.0 0.00 0.00 0.00 63 1017.0
20260510041559 36 150 6.0 8.0 0.00 0.00 0.00 61 1016.9
20260510040101 36 144 6.0 8.0 0.00 0.00 0.00 60 1016.9
20260510034600 37 141 5.0 8.0 0.00 0.00 0.00 58 1016.8
20260510033113 39 139 6.0 8.0 0.00 0.00 0.00 53 1016.9
20260510031600 42 117 6.0 7.0 0.00 0.00 0.00 49 1016.8
20260510030108 44 110 6.0 8.0 0.00 0.00 0.00 48 1016.8
20260510024609 47 117 6.0 7.0 0.00 0.00 0.00 44 1016.7
20260510023057 51 106 4.0 7.0 0.00 0.00 0.00 39 1016.7
20260510021601 55 92 4.0 7.0 0.00 0.00 0.00 35 1016.6
20260510020100 58 79 5.0 9.0 0.00 0.00 0.00 34 1016.7
20260510014559 59 35 6.0 10.0 0.00 0.00 0.00 32 1016.5
20260510013101 60 28 9.0 12.0 0.00 0.00 0.00 33 1016.5
20260510011600 59 30 6.0 10.0 0.00 0.00 0.00 33 1016.4
20260510010111 60 21 9.0 14.0 0.00 0.00 0.00 32 1016.4
20260510004602 60 23 6.0 12.0 0.00 0.00 0.00 32 1016.4
20260510003103 60 50 3.0 15.0 0.00 0.00 0.00 32 1016.3
20260510001600 60 337 8.0 13.0 0.00 0.00 0.00 33 1016.3
20260510000103 60 349 7.0 11.0 0.00 0.00 0.00 34 1016.3
20260509234558 59 40 6.0 12.0 0.00 0.00 0.00 32 1016.2
20260509233101 59 19 2.0 8.0 0.00 0.00 0.00 34 1016.2
20260509231601 59 351 3.0 11.0 0.00 0.00 0.00 33 1016.2
20260509224600 58 44 6.0 13.0 0.00 0.00 0.00 34 1016.3
20260509223102 58 24 8.0 14.0 0.00 0.00 0.00 34 1016.2
20260509221559 58 30 7.0 14.0 0.00 0.00 0.00 34 1016.3
20260509220103 59 25 7.0 14.0 0.00 0.00 0.00 33 1016.3
20260509214628 59 44 10.0 23.0 0.00 0.00 0.00 33 1016.4
20260509213104 60 242 4.0 18.0 0.00 0.00 0.00 34 1016.3
20260509211600 59 253 3.0 16.0 0.00 0.00 0.00 36 1016.4
20260509210108 60 328 13.0 21.0 0.00 0.00 0.00 32 1016.6
20260509204600 58 44 9.0 17.0 0.00 0.00 0.00 35 1016.7
20260509203115 58 341 2.0 15.0 0.00 0.00 0.00 35 1016.6
20260509201602 58 323 8.0 20.0 0.00 0.00 0.00 35 1016.6
20260509194601 57 24 9.0 17.0 0.00 0.00 0.00 37 1016.7
20260509193111 56 162 2.0 16.0 0.00 0.00 0.00 38 1016.7
20260509191608 55 339 6.0 10.0 0.00 0.00 0.00 38 1016.8
20260509190100 55 10 9.0 16.0 0.00 0.00 0.00 38 1016.8
20260509184602 55 351 10.0 17.0 0.00 0.00 0.00 38 1016.8
20260509183104 54 18 9.0 15.0 0.00 0.00 0.00 37 1016.8
20260509181604 54 330 12.0 16.0 0.00 0.00 0.00 39 1016.8
20260509180113 54 359 8.0 18.0 0.00 0.00 0.00 39 1016.9
20260509174624 53 19 11.0 17.0 0.00 0.00 0.00 41 1016.9
20260509173100 53 4 7.0 15.0 0.00 0.00 0.00 40 1016.8
20260509171559 53 41 9.0 15.0 0.00 0.00 0.00 41 1016.8
20260509164600 51 330 6.0 11.0 0.00 0.00 0.00 43 1016.8
20260509163114 51 38 5.0 14.0 0.00 0.00 0.00 42 1017.0
20260509161602 51 36 5.0 13.0 0.00 0.00 0.00 42 1016.9
20260509160101 50 45 3.0 11.0 0.00 0.00 0.00 42 1016.8
20260509154602 50 351 7.0 11.0 0.00 0.00 0.00 42 1016.8
20260509153117 49 328 4.0 10.0 0.00 0.00 0.00 42 1016.8
20260509151601 48 10 3.0 11.0 0.00 0.00 0.00 43 1016.7
20260509144603 46 43 3.0 9.0 0.00 0.00 0.00 48 1016.8
20260509143101 44 359 2.0 4.0 0.00 0.00 0.00 55 1016.7
20260509141559 42 12 1.0 3.0 0.00 0.00 0.00 62 1016.7
20260509134602 38 240 1.0 3.0 0.00 0.00 0.00 75 1016.5
20260509133059 35 0 0.0 1.0 0.00 0.00 0.00 80 1016.3
20260509131601 31 0 0.0 0.0 0.00 0.00 0.00 85 1016.3
20260509130109 29 0 0.0 0.0 0.00 0.00 0.00 85 1016.3
20260509124559 27 0 0.0 0.0 0.00 0.00 0.00 84 1016.1
20260509123102 26 241 1.0 3.0 0.00 0.00 0.00 83 1015.9
20260509121627 25 241 1.0 2.0 0.00 0.00 0.00 82 1015.9
20260509120100 24 241 1.0 3.0 0.00 0.00 0.00 80 1015.8
20260509114610 23 241 3.0 5.0 0.00 0.00 0.00 80 1015.7
20260509113107 23 163 1.0 4.0 0.00 0.00 0.00 79 1015.5